Time,TemperatureF,DewpointF,PressureIn,WindDirection,WindDirectionDegrees,WindSpeedMPH,WindSpeedGustMPH,Humidity,HourlyPrecipIn,Conditions,Clouds,dailyrainin,SoftwareType,DateUTC
2013-04-14 00:03:00,42.0,36.0,29.94,NE,44,0.0,0.0,80,0.00,,,0.08,,2013-04-14 04:03:00,
2013-04-14 00:13:00,42.0,36.0,29.94,NE,44,0.0,0.0,80,0.00,,,0.08,,2013-04-14 04:13:00,
2013-04-14 00:23:00,41.0,36.0,29.94,NE,44,0.0,0.0,81,0.00,,,0.07,,2013-04-14 04:23:00,
2013-04-14 00:33:00,40.0,35.0,29.94,NE,50,0.0,0.0,83,0.00,,,0.07,,2013-04-14 04:33:00,
2013-04-14 00:43:00,40.0,35.0,29.94,NE,50,0.0,0.0,83,0.00,,,0.07,,2013-04-14 04:43:00,
2013-04-14 00:52:00,40.0,36.0,29.95,ENE,70,0.0,0.0,86,0.00,,,0.07,,2013-04-14 04:52:00,
2013-04-14 01:03:00,39.0,35.0,29.95,ENE,75,0.0,0.0,86,0.00,,,0.07,,2013-04-14 05:03:00,
2013-04-14 01:12:00,39.0,35.0,29.95,ENE,75,0.0,0.0,86,0.00,,,0.07,,2013-04-14 05:12:00,
2013-04-14 01:22:00,40.0,36.0,29.95,ENE,75,0.0,0.0,85,0.00,,,0.05,,2013-04-14 05:22:00,
2013-04-14 01:32:00,39.0,35.0,29.96,ENE,75,0.0,0.0,87,0.00,,,0.05,,2013-04-14 05:32:00,
2013-04-14 01:42:00,39.0,35.0,29.96,ENE,75,0.0,0.0,87,0.00,,,0.05,,2013-04-14 05:42:00,
2013-04-14 01:52:00,39.0,36.0,29.96,ENE,75,0.0,0.0,89,0.00,,,0.05,,2013-04-14 05:52:00,
2013-04-14 02:02:00,39.0,36.0,29.96,ENE,75,0.0,0.0,88,0.00,,,0.05,,2013-04-14 06:02:00,
2013-04-14 02:12:00,39.0,36.0,29.96,ENE,75,0.0,0.0,88,0.00,,,0.05,,2013-04-14 06:12:00,
2013-04-14 02:22:00,41.0,37.0,29.95,ENE,75,0.0,0.0,87,0.00,,,0.00,,2013-04-14 06:22:00,
2013-04-14 02:32:00,39.0,36.0,29.95,WNW,290,0.0,0.0,88,0.00,,,0.00,,2013-04-14 06:32:00,
2013-04-14 02:42:00,39.0,36.0,29.95,WNW,290,0.0,0.0,88,0.00,,,0.00,,2013-04-14 06:42:00,
2013-04-14 02:52:00,38.0,35.0,29.95,WNW,290,0.0,0.0,90,0.00,,,0.00,,2013-04-14 06:52:00,
2013-04-14 03:03:00,39.0,36.0,29.95,North,1,0.0,0.0,90,0.00,,,0.00,,2013-04-14 07:03:00,
2013-04-14 03:12:00,39.0,36.0,29.95,North,1,0.0,0.0,90,0.00,,,0.00,,2013-04-14 07:12:00,
2013-04-14 03:22:00,39.0,37.0,29.94,ENE,73,0.0,0.0,91,0.00,,,0.00,,2013-04-14 07:22:00,
2013-04-14 03:33:00,38.0,35.0,29.95,ENE,74,0.0,0.0,90,0.00,,,0.00,,2013-04-14 07:33:00,
2013-04-14 03:42:00,38.0,35.0,29.95,ENE,74,0.0,0.0,90,0.00,,,0.00,,2013-04-14 07:42:00,
2013-04-14 03:52:00,38.0,36.0,29.96,West,269,0.0,0.0,91,0.00,,,0.00,,2013-04-14 07:52:00,
2013-04-14 04:03:00,37.0,35.0,29.96,East,82,0.0,0.0,92,0.00,,,0.00,,2013-04-14 08:03:00,
2013-04-14 04:12:00,37.0,35.0,29.96,East,82,0.0,0.0,92,0.00,,,0.00,,2013-04-14 08:12:00,
2013-04-14 04:23:00,37.0,35.0,29.95,ENE,75,0.0,0.0,91,0.00,,,0.00,,2013-04-14 08:23:00,
2013-04-14 04:32:00,37.0,35.0,29.96,West,279,2.0,3.0,91,0.00,,,0.00,,2013-04-14 08:32:00,
2013-04-14 04:42:00,37.0,35.0,29.96,West,279,2.0,3.0,91,0.00,,,0.00,,2013-04-14 08:42:00,
2013-04-14 04:52:00,36.0,34.0,29.96,SSW,197,0.0,0.0,92,0.00,,,0.00,,2013-04-14 08:52:00,
2013-04-14 05:03:00,35.0,33.0,29.96,SE,128,0.0,0.0,93,0.00,,,0.00,,2013-04-14 09:03:00,
2013-04-14 05:12:00,35.0,33.0,29.96,SE,128,0.0,0.0,93,0.00,,,0.00,,2013-04-14 09:12:00,
2013-04-14 05:22:00,37.0,35.0,29.97,ESE,119,0.0,0.0,94,0.00,,,0.00,,2013-04-14 09:22:00,
2013-04-14 05:33:00,35.0,33.0,29.98,ESE,118,0.0,0.0,93,0.00,,,0.00,,2013-04-14 09:33:00,
2013-04-14 05:43:00,35.0,33.0,29.98,ESE,118,0.0,0.0,93,0.00,,,0.00,,2013-04-14 09:43:00,
2013-04-14 05:53:00,36.0,34.0,29.98,ESE,119,0.0,0.0,94,0.00,,,0.00,,2013-04-14 09:53:00,
2013-04-14 06:03:00,34.0,32.0,29.98,ESE,119,0.0,0.0,93,0.00,,,0.00,,2013-04-14 10:03:00,
2013-04-14 06:12:00,34.0,32.0,29.98,ESE,119,0.0,0.0,93,0.00,,,0.00,,2013-04-14 10:12:00,
2013-04-14 06:23:00,34.0,32.0,29.98,East,100,0.0,0.0,93,0.00,,,0.00,,2013-04-14 10:23:00,
2013-04-14 06:33:00,34.0,32.0,29.98,East,101,0.0,0.0,94,0.00,,,0.00,,2013-04-14 10:33:00,
2013-04-14 06:42:00,34.0,32.0,29.98,East,101,0.0,0.0,94,0.00,,,0.00,,2013-04-14 10:42:00,
2013-04-14 06:52:00,34.0,32.0,29.99,SE,127,0.0,0.0,94,0.00,,,0.00,,2013-04-14 10:52:00,
2013-04-14 07:02:00,34.0,32.0,29.99,SE,127,0.0,0.0,94,0.00,,,0.00,,2013-04-14 11:02:00,
2013-04-14 07:12:00,34.0,32.0,29.99,SE,127,0.0,0.0,94,0.00,,,0.00,,2013-04-14 11:12:00,
2013-04-14 07:23:00,35.0,34.0,30.00,SE,127,0.0,0.0,95,0.00,,,0.00,,2013-04-14 11:23:00,
2013-04-14 07:33:00,35.0,33.0,30.01,SE,127,0.0,0.0,94,0.00,,,0.00,,2013-04-14 11:33:00,
2013-04-14 07:42:00,35.0,33.0,30.01,SE,127,0.0,0.0,94,0.00,,,0.00,,2013-04-14 11:42:00,
2013-04-14 07:53:00,36.0,35.0,30.01,SE,127,0.0,0.0,95,0.00,,,0.00,,2013-04-14 11:53:00,
2013-04-14 08:02:00,36.0,34.0,30.02,SSW,198,0.0,2.0,94,0.00,,,0.00,,2013-04-14 12:02:00,
2013-04-14 08:12:00,36.0,34.0,30.02,SSW,198,0.0,2.0,94,0.00,,,0.00,,2013-04-14 12:12:00,
2013-04-14 08:22:00,40.0,38.0,30.01,SSE,150,0.0,0.0,94,0.00,,,0.00,,2013-04-14 12:22:00,
2013-04-14 08:32:00,41.0,37.0,30.02,North,360,0.0,1.0,87,0.00,,,0.00,,2013-04-14 12:32:00,
2013-04-14 08:42:00,41.0,37.0,30.02,North,360,0.0,1.0,87,0.00,,,0.00,,2013-04-14 12:42:00,
2013-04-14 08:52:00,42.0,38.0,30.02,WSW,254,0.0,2.0,86,0.00,,,0.00,,2013-04-14 12:52:00,
2013-04-14 09:02:00,42.0,38.0,30.02,SW,224,1.0,4.0,84,0.00,,,0.00,,2013-04-14 13:02:00,
2013-04-14 09:12:00,42.0,38.0,30.02,SW,224,1.0,4.0,84,0.00,,,0.00,,2013-04-14 13:12:00,
2013-04-14 09:22:00,42.0,37.0,30.02,WNW,285,1.0,3.0,83,0.00,,,0.00,,2013-04-14 13:22:00,
2013-04-14 09:33:00,43.0,36.0,30.02,WNW,285,4.0,11.0,76,0.00,,,0.00,,2013-04-14 13:33:00,
2013-04-14 09:42:00,43.0,36.0,30.02,WNW,285,4.0,11.0,76,0.00,,,0.00,,2013-04-14 13:42:00,
2013-04-14 09:52:00,43.0,36.0,30.03,West,277,1.0,10.0,75,0.00,,,0.00,,2013-04-14 13:52:00,
2013-04-14 10:02:00,43.0,35.0,30.03,SSW,200,6.0,9.0,72,0.00,,,0.00,,2013-04-14 14:02:00,
2013-04-14 10:12:00,43.0,35.0,30.03,SSW,200,6.0,9.0,72,0.00,,,0.00,,2013-04-14 14:12:00,
2013-04-14 10:22:00,44.0,35.0,30.03,WSW,255,2.0,7.0,71,0.00,,,0.00,,2013-04-14 14:22:00,
2013-04-14 10:32:00,44.0,35.0,30.03,WSW,255,2.0,7.0,71,0.00,,,0.00,,2013-04-14 14:32:00,
2013-04-14 10:42:00,44.0,35.0,30.03,WSW,255,2.0,7.0,71,0.00,,,0.00,,2013-04-14 14:42:00,
2013-04-14 10:52:00,43.0,33.0,30.04,West,266,5.0,9.0,68,0.00,,,0.00,,2013-04-14 14:52:00,
2013-04-14 11:03:00,44.0,33.0,30.04,West,269,3.0,6.0,66,0.00,,,0.00,,2013-04-14 15:03:00,
2013-04-14 11:12:00,44.0,33.0,30.04,West,269,3.0,6.0,66,0.00,,,0.00,,2013-04-14 15:12:00,
2013-04-14 11:22:00,45.0,33.0,30.04,WNW,293,3.0,8.0,63,0.00,,,0.00,,2013-04-14 15:22:00,
2013-04-14 11:33:00,45.0,33.0,30.04,WNW,293,2.0,11.0,63,0.00,,,0.00,,2013-04-14 15:33:00,
2013-04-14 11:43:00,45.0,33.0,30.04,WNW,293,2.0,11.0,63,0.00,,,0.00,,2013-04-14 15:43:00,
2013-04-14 11:53:00,44.0,32.0,30.05,NW,324,3.0,9.0,63,0.00,,,0.00,,2013-04-14 15:53:00,
2013-04-14 12:05:00,44.0,32.0,30.05,WNW,299,1.0,7.0,63,0.00,,,0.00,,2013-04-14 16:05:00,
2013-04-14 12:13:00,44.0,32.0,30.05,WNW,299,1.0,7.0,63,0.00,,,0.00,,2013-04-14 16:13:00,
2013-04-14 12:23:00,44.0,32.0,30.05,West,268,3.0,9.0,63,0.00,,,0.00,,2013-04-14 16:23:00,
2013-04-14 12:33:00,44.0,33.0,30.06,North,354,1.0,6.0,66,0.00,,,0.00,,2013-04-14 16:33:00,
2013-04-14 12:43:00,44.0,33.0,30.06,North,354,1.0,6.0,66,0.00,,,0.00,,2013-04-14 16:43:00,
2013-04-14 12:53:00,44.0,34.0,30.06,WNW,286,2.0,8.0,67,0.00,,,0.00,,2013-04-14 16:53:00,
2013-04-14 13:02:00,44.0,33.0,30.06,West,260,3.0,7.0,66,0.00,,,0.00,,2013-04-14 17:02:00,
2013-04-14 13:13:00,44.0,33.0,30.06,West,260,3.0,7.0,66,0.00,,,0.00,,2013-04-14 17:13:00,
2013-04-14 13:22:00,45.0,33.0,30.06,NW,324,3.0,8.0,63,0.00,,,0.00,,2013-04-14 17:22:00,
2013-04-14 13:33:00,46.0,32.0,30.06,WNW,297,3.0,8.0,58,0.00,,,0.00,,2013-04-14 17:33:00,
2013-04-14 13:42:00,46.0,32.0,30.06,WNW,297,3.0,8.0,58,0.00,,,0.00,,2013-04-14 17:42:00,
2013-04-14 13:52:00,46.0,32.0,30.06,West,271,6.0,12.0,57,0.00,,,0.00,,2013-04-14 17:52:00,
2013-04-14 14:03:00,46.0,31.0,30.06,WNW,291,4.0,15.0,55,0.00,,,0.00,,2013-04-14 18:03:00,
2013-04-14 14:12:00,46.0,31.0,30.06,WNW,291,4.0,15.0,55,0.00,,,0.00,,2013-04-14 18:12:00,
2013-04-14 14:22:00,47.0,31.0,30.06,NW,311,4.0,11.0,53,0.00,,,0.00,,2013-04-14 18:22:00,
2013-04-14 14:33:00,48.0,32.0,30.07,SSE,149,4.0,10.0,54,0.00,,,0.00,,2013-04-14 18:33:00,
2013-04-14 14:43:00,48.0,32.0,30.07,SSE,149,4.0,10.0,54,0.00,,,0.00,,2013-04-14 18:43:00,
2013-04-14 14:53:00,47.0,32.0,30.07,North,6,3.0,10.0,55,0.00,,,0.00,,2013-04-14 18:53:00,
2013-04-14 15:04:00,47.0,31.0,30.06,WNW,297,5.0,12.0,54,0.00,,,0.00,,2013-04-14 19:04:00,
2013-04-14 15:12:00,47.0,31.0,30.06,WNW,297,5.0,12.0,54,0.00,,,0.00,,2013-04-14 19:12:00,
2013-04-14 15:22:00,47.0,32.0,30.07,West,281,4.0,13.0,55,0.00,,,0.00,,2013-04-14 19:22:00,
2013-04-14 15:32:00,46.0,31.0,30.07,WNW,301,5.0,17.0,55,0.00,,,0.00,,2013-04-14 19:32:00,
2013-04-14 15:43:00,46.0,31.0,30.07,WNW,301,5.0,17.0,55,0.00,,,0.00,,2013-04-14 19:43:00,
2013-04-14 15:52:00,47.0,32.0,30.08,NW,326,4.0,11.0,55,0.00,,,0.00,,2013-04-14 19:52:00,
2013-04-14 16:03:00,47.0,32.0,30.08,WNW,294,5.0,11.0,55,0.00,,,0.00,,2013-04-14 20:03:00,
2013-04-14 16:13:00,47.0,32.0,30.08,WNW,294,5.0,11.0,55,0.00,,,0.00,,2013-04-14 20:13:00,
2013-04-14 16:22:00,47.0,31.0,30.07,NNW,335,6.0,9.0,53,0.00,,,0.00,,2013-04-14 20:22:00,
2013-04-14 16:33:00,48.0,31.0,30.07,WNW,295,5.0,10.0,52,0.00,,,0.00,,2013-04-14 20:33:00,
2013-04-14 16:43:00,48.0,31.0,30.07,WNW,295,5.0,10.0,52,0.00,,,0.00,,2013-04-14 20:43:00,
2013-04-14 16:52:00,47.0,31.0,30.09,WSW,255,5.0,10.0,53,0.00,,,0.00,,2013-04-14 20:52:00,
2013-04-14 17:02:00,47.0,30.0,30.09,WNW,285,4.0,10.0,51,0.00,,,0.00,,2013-04-14 21:02:00,
2013-04-14 17:12:00,47.0,30.0,30.09,WNW,285,4.0,10.0,51,0.00,,,0.00,,2013-04-14 21:12:00,
2013-04-14 17:23:00,47.0,29.0,30.10,WNW,302,7.0,16.0,49,0.00,,,0.00,,2013-04-14 21:23:00,
2013-04-14 17:33:00,47.0,29.0,30.11,WNW,293,5.0,18.0,50,0.00,,,0.00,,2013-04-14 21:33:00,
2013-04-14 17:43:00,47.0,29.0,30.11,WNW,293,5.0,18.0,50,0.00,,,0.00,,2013-04-14 21:43:00,
2013-04-14 17:53:00,46.0,28.0,30.11,NW,305,6.0,11.0,50,0.00,,,0.00,,2013-04-14 21:53:00,
2013-04-14 18:03:00,45.0,27.0,30.12,NNW,333,5.0,10.0,50,0.00,,,0.00,,2013-04-14 22:03:00,
2013-04-14 18:13:00,45.0,27.0,30.12,NNW,333,5.0,10.0,50,0.00,,,0.00,,2013-04-14 22:13:00,
2013-04-14 18:23:00,46.0,28.0,30.12,West,273,4.0,9.0,49,0.00,,,0.00,,2013-04-14 22:23:00,
2013-04-14 18:33:00,46.0,28.0,30.13,North,359,2.0,12.0,50,0.00,,,0.00,,2013-04-14 22:33:00,
2013-04-14 18:44:00,46.0,28.0,30.13,North,359,2.0,12.0,50,0.00,,,0.00,,2013-04-14 22:44:00,
2013-04-14 18:52:00,45.0,27.0,30.14,NW,312,5.0,15.0,50,0.00,,,0.00,,2013-04-14 22:52:00,
2013-04-14 19:02:00,45.0,27.0,30.14,WSW,240,4.0,13.0,50,0.00,,,0.00,,2013-04-14 23:02:00,
2013-04-14 19:12:00,45.0,27.0,30.14,WSW,240,4.0,13.0,50,0.00,,,0.00,,2013-04-14 23:12:00,
2013-04-14 19:23:00,44.0,28.0,30.14,NW,315,3.0,8.0,54,0.00,,,0.00,,2013-04-14 23:23:00,
2013-04-14 19:33:00,43.0,28.0,30.15,WNW,286,3.0,11.0,56,0.00,,,0.00,,2013-04-14 23:33:00,
2013-04-14 19:43:00,43.0,28.0,30.15,WNW,286,3.0,11.0,56,0.00,,,0.00,,2013-04-14 23:43:00,
2013-04-14 19:52:00,42.0,27.0,30.15,NE,41,3.0,5.0,56,0.00,,,0.00,,2013-04-14 23:52:00,
2013-04-14 20:02:00,42.0,28.0,30.16,NW,319,2.0,4.0,58,0.00,,,0.00,,2013-04-15 00:02:00,
2013-04-14 20:12:00,42.0,28.0,30.16,NW,319,2.0,4.0,58,0.00,,,0.00,,2013-04-15 00:12:00,
2013-04-14 20:23:00,41.0,28.0,30.18,NNW,338,1.0,5.0,59,0.00,,,0.00,,2013-04-15 00:23:00,
2013-04-14 20:33:00,41.0,28.0,30.19,NW,319,1.0,4.0,59,0.00,,,0.00,,2013-04-15 00:33:00,
2013-04-14 20:42:00,40.0,28.0,30.19,NNW,344,0.0,4.0,61,0.00,,,0.00,,2013-04-15 00:42:00,
2013-04-14 20:52:00,40.0,28.0,30.19,NNW,344,0.0,4.0,61,0.00,,,0.00,,2013-04-15 00:52:00,
2013-04-14 21:03:00,40.0,28.0,30.20,NNW,342,0.0,0.0,63,0.00,,,0.00,,2013-04-15 01:03:00,
2013-04-14 21:12:00,40.0,28.0,30.20,NNW,342,0.0,0.0,63,0.00,,,0.00,,2013-04-15 01:12:00,
2013-04-14 21:23:00,39.0,28.0,30.20,North,349,0.0,0.0,64,0.00,,,0.00,,2013-04-15 01:23:00,
2013-04-14 21:33:00,39.0,28.0,30.21,North,349,0.0,0.0,64,0.00,,,0.00,,2013-04-15 01:33:00,
2013-04-14 21:42:00,39.0,28.0,30.21,North,349,0.0,0.0,64,0.00,,,0.00,,2013-04-15 01:42:00,
2013-04-14 21:52:00,39.0,28.0,30.22,NNE,19,0.0,0.0,65,0.00,,,0.00,,2013-04-15 01:52:00,
2013-04-14 22:03:00,38.0,28.0,30.22,NNW,336,1.0,3.0,67,0.00,,,0.00,,2013-04-15 02:03:00,
2013-04-14 22:12:00,38.0,28.0,30.22,NNW,336,1.0,3.0,67,0.00,,,0.00,,2013-04-15 02:12:00,
2013-04-14 22:22:00,38.0,28.0,30.21,NW,319,0.0,2.0,66,0.00,,,0.00,,2013-04-15 02:22:00,
2013-04-14 22:32:00,38.0,27.0,30.22,NNE,25,1.0,3.0,65,0.00,,,0.00,,2013-04-15 02:32:00,
2013-04-14 22:42:00,38.0,27.0,30.22,NNE,25,1.0,3.0,65,0.00,,,0.00,,2013-04-15 02:42:00,
2013-04-14 22:52:00,37.0,27.0,30.22,North,6,0.0,1.0,66,0.00,,,0.00,,2013-04-15 02:52:00,
2013-04-14 23:03:00,38.0,27.0,30.22,NW,320,1.0,3.0,65,0.00,,,0.00,,2013-04-15 03:03:00,
2013-04-14 23:12:00,38.0,27.0,30.22,NW,320,1.0,3.0,65,0.00,,,0.00,,2013-04-15 03:12:00,
2013-04-14 23:22:00,38.0,27.0,30.22,North,350,1.0,4.0,65,0.00,,,0.00,,2013-04-15 03:22:00,
2013-04-14 23:33:00,35.0,27.0,30.22,SW,224,0.0,0.0,73,0.00,,,0.00,,2013-04-15 03:33:00,
2013-04-14 23:43:00,35.0,27.0,30.22,SW,224,0.0,0.0,73,0.00,,,0.00,,2013-04-15 03:43:00,
2013-04-14 23:54:00,35.0,27.0,30.22,NNW,345,0.0,2.0,72,0.00,,,0.00,,2013-04-15 03:54:00,